Martinsburg, WV

9:20 AM EST on January 19, 2018 (GMT -0500)
Eastern W Va Regional-Shepherd

Weather History for KMRB - March, 2013

Change the Weather History Date:

Thursday, March 14, 2013

  Actual Average Record
Temperature  
Mean Temperature 37 °F 41 °F  
Max Temperature 43 °F 52 °F 84 °F (1990)
Min Temperature 30 °F 31 °F 15 °F (1968)
Degree Days  
Heating Degree Days 28 24  
Month to date heating degree days 346 364  
Since 1 July heating degree days 3981 4320  
Cooling Degree Days 0 0  
Month to date cooling degree days 0 0  
Year to date cooling degree days 0 0  
Moisture  
Dew Point 13 °F    
Average Humidity 40    
Maximum Humidity 51    
Minimum Humidity 29    
Precipitation  
Precipitation 0.00 in 0.12 in 1.44 in (1986)
Month to date precipitation 0.97 1.44  
Year to date precipitation 5.79 6.22  
Sea Level Pressure  
Sea Level Pressure 30.10 in    
Wind  
Wind Speed 16 mph (WNW)    
Max Wind Speed 31 mph    
Max Gust Speed 43 mph    
Visibility 10 miles    
Events      
T = Trace of Precipitation, MM = Missing Value Source: NWS Daily Summary

Daily Weather History Graph

Daily Weather History Graph

Search for Another Location

Airport or City:

Trip Planner

Search our weather history database for the weather conditions in past years. The results will help you decide how hot, cold, wet, or windy it might be!

Date:

Astronomy

Mar. 14, 2013 Rise Set
Actual Time 7:24 AM EDT 7:18 PM EDT
Civil Twilight 6:57 AM EDT 7:44 PM EDT
Nautical Twilight 6:26 AM EDT 8:16 PM EDT
Astronomical Twilight 5:55 AM EDT 8:47 PM EDT
Moon 8:38 AM EDT (3/14) 10:31 PM EDT (3/14)
Length of Visible Light 12h 47m
Length of Day
11h 53m
Waxing Crescent, 9% of the Moon is Illuminated
Mar 14
Waxing Crescent
Mar 19
First Quarter
Mar 27
Full
Apr 3
Last Quarter
Apr 10
New

Hourly Weather History & Observations

Time (EDT) Temp. Windchill Dew Point Humidity Pressure Visibility Wind Dir Wind Speed Gust Speed Precip Events Conditions
12:53 AM 33.1 °F 24.9 °F 17.1 °F 52% 30.08 in 10.0 mi WNW 10.4 mph - N/A   Overcast
1:53 AM 33.1 °F 23.9 °F 17.1 °F 52% 30.09 in 10.0 mi WNW 12.7 mph 19.6 mph N/A   Overcast
2:53 AM 32.0 °F 21.6 °F 14.0 °F 48% 30.09 in 10.0 mi WNW 15.0 mph 29.9 mph N/A   Overcast
3:53 AM 32.0 °F 20.8 °F 12.9 °F 45% 30.08 in 10.0 mi WNW 17.3 mph 39.1 mph N/A   Scattered Clouds
4:53 AM 30.9 °F 19.1 °F 10.9 °F 43% 30.08 in 10.0 mi West 18.4 mph 24.2 mph N/A   Mostly Cloudy
5:53 AM 30.9 °F 17.8 °F 12.0 °F 46% 30.09 in 10.0 mi WNW 23.0 mph 27.6 mph N/A   Mostly Cloudy
6:53 AM 30.9 °F 20.7 °F 12.0 °F 46% 30.12 in 10.0 mi WNW 13.8 mph 29.9 mph N/A   Overcast
7:53 AM 30.9 °F 21.7 °F 12.0 °F 46% 30.13 in 10.0 mi WNW 11.5 mph 20.7 mph N/A   Mostly Cloudy
8:53 AM 32.0 °F 20.1 °F 12.0 °F 44% 30.15 in 10.0 mi NW 19.6 mph 26.5 mph N/A   Mostly Cloudy
9:53 AM 33.1 °F 22.6 °F 12.0 °F 42% 30.16 in 10.0 mi WNW 16.1 mph 28.8 mph N/A   Mostly Cloudy
10:53 AM 35.1 °F 22.7 °F 12.0 °F 39% 30.14 in 10.0 mi WNW 25.3 mph 33.4 mph N/A   Clear
11:53 AM 37.9 °F 26.6 °F 14.0 °F 38% 30.13 in 10.0 mi WNW 25.3 mph 34.5 mph N/A   Clear
1:53 PM 42.1 °F 32.3 °F 12.0 °F 29% 30.09 in 10.0 mi NW 24.2 mph 35.7 mph N/A   Clear
2:53 PM 42.1 °F 32.1 °F 12.0 °F 29% 30.06 in 10.0 mi WNW 25.3 mph 42.6 mph N/A   Clear
3:53 PM 43.0 °F 33.8 °F 12.9 °F 30% 30.06 in 10.0 mi West 23.0 mph 33.4 mph N/A   Clear
4:53 PM 42.1 °F 33.3 °F 12.9 °F 31% 30.07 in 10.0 mi WNW 19.6 mph 31.1 mph N/A   Partly Cloudy
5:53 PM 42.1 °F 32.8 °F 12.0 °F 29% 30.07 in 10.0 mi WNW 21.9 mph 32.2 mph N/A   Clear
6:53 PM 41.0 °F 33.9 °F 12.9 °F 32% 30.08 in 10.0 mi WNW 12.7 mph - N/A   Clear
7:53 PM 39.9 °F 32.5 °F 12.9 °F 33% 30.09 in 10.0 mi WNW 12.7 mph 21.9 mph N/A   Clear
8:53 PM 37.9 °F 33.5 °F 14.0 °F 38% 30.09 in 10.0 mi WNW 5.8 mph - N/A   Clear
9:53 PM 37.9 °F 33.5 °F 15.1 °F 39% 30.10 in 10.0 mi North 5.8 mph - N/A   Clear
10:53 PM 37.9 °F 33.5 °F 15.1 °F 39% 30.10 in 10.0 mi NW 5.8 mph - N/A   Clear
11:53 PM 37.0 °F 33.3 °F 16.0 °F 42% 30.11 in 10.0 mi WNW 4.6 mph - N/A   Clear